Hourly Weather Dalaman

Today, 23 April, Friday

Time Temperature Precipitation Wind Pressure Humidity
00:00 +17°C° 0 mm 2 mps 763 mmHg 38%
01:00 +17°C° 0 mm 2 mps 763 mmHg 37%
02:00 +17°C° 0 mm 2 mps 763 mmHg 36%
03:00 +17°C° 0 mm 2 mps 763 mmHg 36%
04:00 +17°C° 0 mm 2 mps 762 mmHg 36%
05:00 +17°C° 0 mm 2 mps 762 mmHg 36%
06:00 +20°C° 0 mm 1 mps 763 mmHg 33%
07:00 +22°C° 0 mm 1 mps 763 mmHg 31%
08:00 +24°C° 0 mm 1 mps 763 mmHg 28%
09:00 +26°C° 0 mm 1 mps 763 mmHg 25%
10:00 +27°C° 0 mm 2 mps 763 mmHg 23%
11:00 +28°C° 0 mm 2 mps 763 mmHg 20%
12:00 +28°C° 0 mm 2 mps 763 mmHg 22%
13:00 +29°C° 0 mm 2 mps 762 mmHg 23%
14:00 +29°C° 0 mm 3 mps 762 mmHg 24%
15:00 +28°C° 0 mm 2 mps 762 mmHg 27%
16:00 +27°C° 0 mm 2 mps 762 mmHg 29%
17:00 +27°C° 0 mm 2 mps 761 mmHg 31%
18:00 +25°C° 0 mm 1 mps 762 mmHg 37%
19:00 +23°C° 0 mm 1 mps 762 mmHg 43%
20:00 +21°C° 0 mm 1 mps 762 mmHg 49%
21:00 +21°C° 0 mm 1 mps 762 mmHg 48%
22:00 +21°C° 0 mm 1 mps 761 mmHg 47%
23:00 +21°C° 0 mm 1 mps 761 mmHg 47%

Tomorrow, 24 April, Saturday

Time Temperature Precipitation Wind Pressure Humidity
00:00 +21°C° 0 mm 1 mps 761 mmHg 46%
01:00 +20°C° 0 mm 1 mps 761 mmHg 46%
02:00 +19°C° 0 mm 2 mps 760 mmHg 45%
03:00 +19°C° 0 mm 2 mps 760 mmHg 45%
04:00 +19°C° 0 mm 2 mps 760 mmHg 44%
05:00 +19°C° 0 mm 2 mps 759 mmHg 44%
06:00 +21°C° 0 mm 2 mps 759 mmHg 39%
07:00 +25°C° 0 mm 2 mps 759 mmHg 35%
08:00 +27°C° 0 mm 1 mps 759 mmHg 31%
09:00 +28°C° 0 mm 2 mps 759 mmHg 28%
10:00 +29°C° 0 mm 2 mps 759 mmHg 26%
11:00 +31°C° 0 mm 3 mps 759 mmHg 24%
12:00 +31°C° 0 mm 3 mps 758 mmHg 23%
13:00 +31°C° 0 mm 2 mps 758 mmHg 23%
14:00 +31°C° 0 mm 2 mps 757 mmHg 23%
15:00 +30°C° 0 mm 2 mps 757 mmHg 25%
16:00 +29°C° 0 mm 2 mps 757 mmHg 27%
17:00 +28°C° 0 mm 1 mps 757 mmHg 30%
18:00 +26°C° 0 mm 1 mps 757 mmHg 37%
19:00 +24°C° 0 mm 1 mps 758 mmHg 44%
20:00 +22°C° 0 mm 1 mps 758 mmHg 51%
21:00 +23°C° 0 mm 2 mps 757 mmHg 47%
22:00 +24°C° 0 mm 2 mps 757 mmHg 44%
23:00 +24°C° 0 mm 3 mps 756 mmHg 40%

Day after tomorrow, 25 April, Sunday

Time Temperature Precipitation Wind Pressure Humidity
00:00 +24°C° 0 mm 2 mps 756 mmHg 42%
01:00 +24°C° 0 mm 2 mps 755 mmHg 43%
02:00 +23°C° 0 mm 1 mps 755 mmHg 45%
03:00 +23°C° 0 mm 1 mps 755 mmHg 47%
04:00 +21°C° 0 mm 2 mps 755 mmHg 48%
05:00 +21°C° 0 mm 2 mps 755 mmHg 50%
06:00 +24°C° 0 mm 2 mps 755 mmHg 45%
07:00 +25°C° 0 mm 2 mps 755 mmHg 41%
08:00 +26°C° 0 mm 2 mps 754 mmHg 36%
09:00 +27°C° 0.1 mm 2 mps 754 mmHg 34%
10:00 +28°C° 0.1 mm 3 mps 754 mmHg 31%
11:00 +29°C° 0.1 mm 3 mps 754 mmHg 29%
12:00 +28°C° 0.1 mm 3 mps 753 mmHg 32%
13:00 +28°C° 0.1 mm 3 mps 753 mmHg 34%
14:00 +27°C° 0.1 mm 2 mps 753 mmHg 37%
15:00 +26°C° 0 mm 2 mps 753 mmHg 38%
16:00 +26°C° 0 mm 2 mps 753 mmHg 39%
17:00 +25°C° 0 mm 2 mps 753 mmHg 39%
18:00 +23°C° 0 mm 1 mps 753 mmHg 47%
19:00 +22°C° 0 mm 1 mps 753 mmHg 55%
20:00 +20°C° 0 mm 1 mps 753 mmHg 62%
21:00 +20°C° 0 mm 1 mps 753 mmHg 60%
22:00 +19°C° 0 mm 1 mps 753 mmHg 57%
23:00 +18°C° 0 mm 2 mps 753 mmHg 55%

26 April, Monday

Time Temperature Precipitation Wind Pressure Humidity
00:00 +18°C° 0 mm 2 mps 753 mmHg 60%
01:00 +18°C° 0 mm 3 mps 753 mmHg 64%
02:00 +17°C° 0 mm 3 mps 753 mmHg 69%
03:00 +17°C° 0 mm 3 mps 753 mmHg 71%
04:00 +17°C° 0 mm 3 mps 753 mmHg 73%
05:00 +15°C° 0 mm 4 mps 753 mmHg 75%
06:00 +18°C° 0 mm 4 mps 753 mmHg 68%
07:00 +20°C° 0 mm 4 mps 753 mmHg 60%
08:00 +22°C° 0 mm 4 mps 754 mmHg 53%
09:00 +23°C° 0 mm 4 mps 754 mmHg 47%
10:00 +26°C° 0 mm 4 mps 754 mmHg 41%
11:00 +28°C° 0 mm 5 mps 754 mmHg 34%
12:00 +28°C° 0 mm 5 mps 754 mmHg 33%
13:00 +29°C° 0 mm 5 mps 754 mmHg 31%
14:00 +30°C° 0 mm 5 mps 754 mmHg 30%
15:00 +29°C° 0 mm 6 mps 754 mmHg 32%
16:00 +28°C° 0 mm 6 mps 754 mmHg 34%
17:00 +27°C° 0 mm 6 mps 754 mmHg 37%
18:00 +25°C° 0 mm 5 mps 754 mmHg 43%
19:00 +22°C° 0 mm 5 mps 755 mmHg 49%
20:00 +20°C° 0 mm 4 mps 756 mmHg 55%
21:00 +19°C° 0 mm 4 mps 756 mmHg 57%
22:00 +19°C° 0 mm 4 mps 756 mmHg 59%
23:00 +18°C° 0 mm 3 mps 756 mmHg 61%

27 April, Tuesday

Time Temperature Precipitation Wind Pressure Humidity
00:00 +17°C° 0 mm 3 mps 757 mmHg 62%
01:00 +17°C° 0 mm 3 mps 757 mmHg 64%
02:00 +17°C° 0 mm 3 mps 757 mmHg 65%
03:00 +17°C° 0 mm 3 mps 757 mmHg 63%
04:00 +16°C° 0 mm 3 mps 757 mmHg 62%
05:00 +16°C° 0 mm 3 mps 757 mmHg 61%
06:00 +19°C° 0 mm 2 mps 757 mmHg 52%
07:00 +21°C° 0 mm 2 mps 758 mmHg 42%
08:00 +25°C° 0 mm 1 mps 758 mmHg 33%
09:00 +27°C° 0 mm 2 mps 758 mmHg 29%
10:00 +28°C° 0 mm 3 mps 758 mmHg 25%
11:00 +30°C° 0 mm 3 mps 758 mmHg 21%
12:00 +31°C° 0 mm 3 mps 758 mmHg 22%
13:00 +31°C° 0 mm 3 mps 757 mmHg 23%
14:00 +32°C° 0 mm 4 mps 757 mmHg 24%
15:00 +30°C° 0 mm 3 mps 757 mmHg 27%
16:00 +29°C° 0 mm 3 mps 758 mmHg 31%
17:00 +28°C° 0 mm 3 mps 758 mmHg 34%
18:00 +26°C° 0 mm 3 mps 758 mmHg 39%
19:00 +24°C° 0 mm 2 mps 758 mmHg 44%
20:00 +23°C° 0 mm 1 mps 759 mmHg 49%
21:00 +23°C° 0 mm 1 mps 759 mmHg 48%
22:00 +23°C° 0 mm 1 mps 759 mmHg 47%
23:00 +22°C° 0 mm 1 mps 759 mmHg 46%

28 April, Wednesday

Time Temperature Precipitation Wind Pressure Humidity
00:00 +22°C° 0 mm 1 mps 759 mmHg 47%
01:00 +22°C° 0 mm 1 mps 759 mmHg 48%
02:00 +21°C° 0 mm 2 mps 759 mmHg 49%
03:00 +21°C° 0 mm 2 mps 759 mmHg 47%
04:00 +21°C° 0 mm 2 mps 759 mmHg 44%
05:00 +23°C° 0 mm 2 mps 759 mmHg 42%
06:00 +24°C° 0 mm 2 mps 759 mmHg 40%
07:00 +25°C° 0 mm 2 mps 759 mmHg 39%
08:00 +27°C° 0 mm 3 mps 759 mmHg 37%
09:00 +28°C° 0 mm 3 mps 760 mmHg 34%
10:00 +29°C° 0 mm 4 mps 760 mmHg 31%
11:00 +32°C° 0 mm 4 mps 760 mmHg 29%
12:00 +30°C° 0 mm 4 mps 760 mmHg 28%
13:00 +30°C° 0 mm 3 mps 760 mmHg 27%
14:00 +30°C° 0 mm 3 mps 760 mmHg 25%
15:00 +29°C° 0 mm 3 mps 760 mmHg 26%
16:00 +28°C° 0 mm 3 mps 760 mmHg 27%
17:00 +28°C° 0 mm 3 mps 760 mmHg 28%
18:00 +26°C° 0 mm 2 mps 760 mmHg 32%
19:00 +25°C° 0 mm 2 mps 760 mmHg 36%
20:00 +23°C° 0 mm 1 mps 761 mmHg 40%
21:00 +23°C° 0 mm 1 mps 761 mmHg 39%
22:00 +23°C° 0 mm 1 mps 761 mmHg 38%
23:00 +23°C° 0 mm 1 mps 761 mmHg 36%
Show more